Atlanta Fulton, GA

6:00 PM EDT on June 25, 2017 (GMT -0400)
Fulton County-Brown

Weather History for KFTY - August, 2014

Change the Weather History Date:

Saturday, August 30, 2014

  Actual Average Record
Temperature  
Mean Temperature 78 °F 77 °F  
Max Temperature 89 °F 87 °F 93 °F (1998)
Min Temperature 67 °F 67 °F 66 °F (1997)
Cooling Degree Days 13 12  
Month to date cooling degree days 397 416  
Year to date cooling degree days 1380 1425  
Since 1 June cooling degree days 1164 1225  
Growing Degree Days 28 (Base 50)    
Moisture  
Dew Point 70 °F    
Average Humidity 75    
Maximum Humidity 93    
Minimum Humidity 56    
Precipitation  
Precipitation 0.41 in 0.11 in 1.95 in (1974)
Month to date precipitation 3.71 4.62  
Year to date precipitation 30.70 35.30  
Sea Level Pressure  
Sea Level Pressure 30.11 in    
Wind  
Wind Speed 4 mph (SSE)    
Max Wind Speed 24 mph    
Max Gust Speed 31 mph    
Visibility 9 miles    
Events Rain , Thunderstorm    
T = Trace of Precipitation, MM = Missing Value Source: NWS Daily Summary

Daily Weather History Graph

Daily Weather History Graph

Search for Another Location

Airport or City:

Trip Planner

Search our weather history database for the weather conditions in past years. The results will help you decide how hot, cold, wet, or windy it might be!

Date:

Astronomy

Aug. 30, 2014 Rise Set
Actual Time 7:10 AM EDT 8:06 PM EDT
Civil Twilight 6:44 AM EDT 8:31 PM EDT
Nautical Twilight 6:14 AM EDT 9:01 PM EDT
Astronomical Twilight 5:43 AM EDT 9:32 PM EDT
Moon 11:42 AM EDT (8/30) 10:55 PM EDT (8/30)
Length of Visible Light 13h 46m
Length of Day
12h 55m
Waxing Crescent, 23% of the Moon is Illuminated
Aug 30
Waxing Crescent
Sep 2
First Quarter
Sep 8
Full
Sep 15
Last Quarter
Sep 24
New

Hourly Weather History & Observations

Time (EDT) Temp. Heat Index Dew Point Humidity Pressure Visibility Wind Dir Wind Speed Gust Speed Precip Events Conditions
12:53 AM 70.0 °F - 64.9 °F 84% 30.08 in 10.0 mi Calm Calm - N/A   Scattered Clouds
1:53 AM 71.1 °F - 64.9 °F 81% 30.08 in 10.0 mi Calm Calm - N/A   Clear
2:53 AM 70.0 °F - 64.9 °F 84% 30.07 in 10.0 mi Calm Calm - N/A   Clear
3:53 AM 69.8 °F - 64.4 °F 83% 30.11 in 10.0 mi NE 3.5 mph - N/A   Clear
4:53 AM 70.0 °F - 64.9 °F 84% 30.09 in 10.0 mi Calm Calm - N/A   Clear
5:53 AM 68.0 °F - 64.0 °F 87% 30.10 in 10.0 mi Calm Calm - N/A   Clear
6:53 AM 66.9 °F - 64.0 °F 90% 30.11 in 10.0 mi Calm Calm - N/A   Clear
7:53 AM 69.1 °F - 66.0 °F 90% 30.12 in 10.0 mi Calm Calm - N/A   Clear
8:53 AM 73.9 °F - 66.9 °F 79% 30.14 in 10.0 mi NE 3.5 mph - N/A   Partly Cloudy
9:53 AM 77.0 °F - 69.1 °F 76% 30.13 in 10.0 mi Calm Calm - N/A   Clear
10:53 AM 82.0 °F 86.3 °F 71.1 °F 69% 30.14 in 10.0 mi Variable 6.9 mph - N/A   Partly Cloudy
11:11 AM 82.9 °F 88.0 °F 72.0 °F 69% 30.17 in 10.0 mi Variable 6.9 mph - N/A   Mostly Cloudy
11:53 AM 84.0 °F 89.0 °F 71.1 °F 65% 30.14 in 10.0 mi SSE 8.1 mph - N/A   Mostly Cloudy
12:00 PM 84.9 °F 90.1 °F 71.1 °F 63% 30.16 in 10.0 mi SE 6.9 mph - N/A   Scattered Clouds
12:53 PM 86.0 °F 91.5 °F 71.1 °F 61% 30.12 in 10.0 mi South 6.9 mph - N/A   Mostly Cloudy
1:53 PM 89.1 °F 95.0 °F 71.1 °F 55% 30.10 in 10.0 mi Calm Calm - N/A   Mostly Cloudy
2:53 PM 87.1 °F 92.8 °F 71.1 °F 59% 30.07 in 10.0 mi SE 13.8 mph 19.6 mph N/A   Mostly Cloudy
3:24 PM 81.0 °F 86.2 °F 73.9 °F 79% 30.09 in 10.0 mi Variable 3.5 mph - 0.02 in Rain , Thunderstorm Light Rain
3:50 PM 78.8 °F - 71.6 °F 78% 30.10 in 2.5 mi South 20.7 mph 31.1 mph 0.09 in Rain , Thunderstorm Heavy Thunderstorms and Rain
3:53 PM 75.9 °F - 71.1 °F 85% 30.08 in 1.2 mi SSW 19.6 mph 31.1 mph 0.18 in Rain , Thunderstorm Heavy Thunderstorms and Rain
4:01 PM 75.0 °F - 70.0 °F 84% 30.10 in 0.8 mi West 5.8 mph 26.5 mph 0.17 in Rain , Thunderstorm Heavy Thunderstorms and Rain
4:08 PM 75.0 °F - 72.0 °F 90% 30.10 in 7.0 mi West 6.9 mph - 0.19 in Rain Light Rain
4:53 PM 82.9 °F 90.8 °F 75.9 °F 79% 30.06 in 10.0 mi South 11.5 mph 18.4 mph 0.20 in Thunderstorm Thunderstorm
5:13 PM 79.0 °F - 72.0 °F 79% 30.08 in 10.0 mi ESE 8.1 mph - N/A Thunderstorm Thunderstorm
5:32 PM 79.0 °F - 71.1 °F 77% 30.08 in 10.0 mi East 6.9 mph - N/A   Partly Cloudy
5:53 PM 81.0 °F 85.2 °F 72.0 °F 74% 30.06 in 10.0 mi NNE 3.5 mph - N/A   Scattered Clouds
6:53 PM 80.1 °F 84.2 °F 73.0 °F 79% 30.06 in 10.0 mi NNE 3.5 mph - N/A   Clear
7:53 PM 78.1 °F - 73.9 °F 87% 30.06 in 10.0 mi NE 3.5 mph - N/A   Mostly Cloudy
8:53 PM 78.1 °F - 73.9 °F 87% 30.08 in 10.0 mi Calm Calm - N/A   Overcast
9:53 PM 77.0 °F - 73.9 °F 90% 30.09 in 10.0 mi Calm Calm - N/A   Mostly Cloudy
10:34 PM 75.9 °F - 68.0 °F 76% 30.16 in 10.0 mi WNW 10.4 mph 19.6 mph 0.00 in Rain , Thunderstorm Light Rain
10:49 PM 73.4 °F - 69.8 °F 88% 30.15 in 6.0 mi WNW 4.6 mph - N/A Rain Light Rain
10:53 PM 73.4 °F - 69.8 °F 88% 30.16 in 9.0 mi West 4.6 mph - N/A Rain Light Rain
11:27 PM 73.4 °F - 69.8 °F 88% 30.15 in 10.0 mi Calm Calm - N/A Thunderstorm Mostly Cloudy
11:42 PM 73.0 °F - 70.0 °F 90% 30.15 in 10.0 mi SSE 5.8 mph - 0.00 in   Partly Cloudy
11:53 PM 73.0 °F - 70.0 °F 90% 30.12 in 10.0 mi WSW 4.6 mph - 0.00 in   Clear